Wind_Speed
21 20 19 19 18 17 17 16 15 15 14 14 13 13 11 10 11 13 11 10 12 12 11 12 14 15 16 15 14 14 12 10 10 10 10 11 11 11 12 12 12 12 12 11 13 12 9 10 12 11 10 10 9 7 8 9 12 15 16 17 19 16 16 24 28 25 20 17 18 21 22 26 31 32 31 29 26 25 21 16 19 19 15 20 19 15 30
21 20 19 19 18 17 16 16 15 15 14 14 13 11 9 10 12 14 13 13 12 13 14 14 13 15 15 14 13 11 10 9 9 10 10 10 10 10 12 12 12 13 12 11 13 13 9 10 12 11 10 10 8 8 8 9 11 15 16 17 18 14 16 24 25 19 16 14 16 19 24 30 32 31 32 31 26 26 26 20 19 17 15 19 15 15 38
21 20 20 19 18 18 17 16 15 15 14 13 12 9 8 8 11 14 16 14 11 13 17 15 13 15 14 12 11 9 9 9 9 9 10 9 9 10 11 12 13 13 13 13 14 15 12 11 11 11 10 9 9 8 9 8 10 15 17 18 19 15 15 21 17 9 8 11 11 15 24 29 29 29 30 28 25 23 22 17 15 17 21 24 19 24 47
22 21 20 19 18 18 18 17 16 15 14 13 11 10 9 8 10 12 15 15 13 15 18 16 14 13 11 10 10 9 8 9 8 8 9 10 10 10 11 13 13 13 14 13 14 16 14 11 11 12 10 9 10 9 9 9 9 14 17 18 19 16 14 19 19 13 12 15 15 17 22 24 26 30 28 23 22 21 20 15 14 21 28 30 28 30 45
22 21 20 19 18 18 19 18 17 16 15 14 13 11 10 10 12 12 13 14 15 16 17 15 13 12 10 10 10 9 9 9 8 9 9 10 11 10 11 13 13 13 14 14 14 16 14 11 12 11 9 10 10 10 10 9 9 12 17 18 20 18 14 19 25 22 17 17 18 18 18 21 26 27 20 19 20 21 20 18 19 23 22 29 41 44 46
23 22 21 20 19 19 20 20 19 18 17 17 15 13 12 14 16 16 15 14 15 15 15 14 13 11 11 11 11 10 10 9 10 10 10 11 12 11 12 13 13 13 14 14 15 15 14 12 12 11 10 10 10 10 10 9 9 12 16 19 21 20 18 23 29 26 19 17 22 23 21 23 24 17 13 19 20 19 22 25 25 24 21 32 51 53 49
23 23 22 21 20 20 20 21 22 20 20 20 18 16 17 18 19 18 18 17 15 15 14 14 13 12 11 11 11 11 11 11 11 11 11 12 12 12 12 13 13 14 14 15 16 16 15 14 14 13 11 11 12 12 10 9 10 12 16 21 22 22 24 27 30 29 22 21 28 30 25 21 15 9 13 22 20 15 20 28 32 36 41 46 51 52 53
25 24 24 23 22 21 21 23 23 23 22 22 22 22 22 22 21 20 18 18 17 16 15 15 14 13 12 12 12 11 11 12 11 11 11 12 13 13 13 13 14 14 15 17 18 18 17 16 15 14 12 12 13 11 9 9 11 12 16 21 23 24 27 28 30 30 25 27 35 31 21 14 7 7 17 22 21 19 23 31 40 50 58 58 53 51 51
26 26 25 25 24 24 23 24 25 26 25 24 24 26 26 25 25 22 19 19 20 17 15 15 13 12 13 13 12 11 11 12 12 12 12 13 13 13 13 14 14 15 16 18 19 19 18 17 17 14 12 12 11 10 10 10 11 13 17 21 23 26 29 30 32 29 24 30 38 29 17 8 4 10 21 22 22 25 28 36 47 53 54 53 49 45 44
28 28 27 27 26 26 25 25 26 27 27 25 25 27 27 25 26 24 20 20 21 17 15 15 13 12 13 13 13 13 12 13 13 13 13 13 13 13 13 14 15 16 17 19 20 20 19 18 17 15 13 11 11 11 11 11 12 14 17 21 24 26 30 31 30 29 29 35 38 26 12 3 2 14 25 24 25 30 35 45 53 53 47 44 41 43 49
29 29 29 28 28 27 26 26 26 26 27 26 25 26 26 25 25 24 20 20 21 18 16 15 14 14 14 14 14 14 14 14 14 13 13 13 13 14 14 14 15 17 18 19 20 20 19 18 18 17 14 12 12 12 13 12 12 14 18 22 23 26 29 29 27 27 30 37 41 27 8 3 11 19 23 22 25 34 45 54 56 53 48 43 42 49 58
28 28 28 28 28 27 27 25 25 24 25 25 24 24 24 24 24 23 20 19 20 20 17 16 15 14 14 14 14 15 14 14 14 14 14 14 14 14 15 15 16 17 18 19 20 20 19 18 17 17 15 14 13 13 14 13 12 14 18 20 22 25 27 27 27 27 28 35 39 23 6 9 18 18 18 21 28 41 53 56 54 49 42 40 45 53 57
24 24 24 24 24 25 24 24 23 22 22 23 23 22 23 23 22 22 20 19 20 20 17 16 16 14 14 15 15 15 15 14 14 15 14 14 14 15 15 16 17 18 18 19 20 19 18 17 16 15 14 14 14 13 13 12 12 16 18 18 21 25 25 26 27 25 25 28 24 11 8 14 16 15 20 27 39 50 53 56 58 46 31 34 46 51 52
19 19 20 20 20 21 21 21 21 20 20 21 21 21 21 22 21 21 20 19 19 20 18 16 16 15 15 15 15 15 15 15 15 15 14 14 15 15 16 17 19 19 18 19 20 18 17 16 15 14 14 13 12 11 12 12 13 15 17 18 21 23 24 25 24 22 22 23 20 17 15 11 11 17 24 32 45 50 46 54 57 39 25 38 50 51 54
16 16 16 16 17 18 18 18 18 18 18 19 19 19 20 20 20 19 19 19 18 18 18 16 16 16 15 15 15 15 15 15 15 15 15 15 15 16 17 18 19 18 18 19 19 18 16 15 14 13 12 10 9 10 11 12 14 15 16 18 22 23 23 23 23 23 23 20 17 15 10 5 9 20 29 37 46 46 43 49 48 34 33 50 56 54 60
15 14 14 15 16 17 17 18 17 17 17 17 17 18 19 19 19 18 19 19 18 18 18 17 17 17 15 15 15 15 15 15 15 15 15 16 17 17 18 20 20 19 19 20 19 17 16 15 14 13 11 11 11 12 12 13 14 16 16 18 22 23 22 23 24 25 26 20 12 6 5 7 14 26 38 43 45 47 42 36 35 42 51 57 57 57 62
16 15 15 15 16 17 18 18 17 16 16 16 17 17 18 19 19 18 18 18 18 18 18 17 17 16 16 15 15 15 15 15 15 16 16 17 17 18 19 21 20 19 20 20 19 17 17 16 15 14 13 13 13 12 13 14 16 16 17 19 21 22 23 25 26 27 26 22 15 11 9 12 20 34 45 45 45 47 34 18 30 54 60 54 55 58 59
16 16 16 16 16 17 17 18 18 17 17 17 17 16 17 18 19 18 18 17 17 18 19 18 16 16 16 15 15 15 15 15 15 16 16 17 17 19 20 21 20 20 21 21 19 18 18 17 16 15 14 14 13 12 13 15 17 17 17 19 21 23 24 25 27 28 26 22 21 20 16 18 30 41 44 44 46 43 29 23 40 56 55 53 56 56 56
13 14 15 16 17 17 17 17 18 17 18 18 17 16 18 18 18 19 18 17 17 18 19 18 16 15 15 16 16 16 15 15 16 17 17 18 18 20 21 20 20 21 21 20 19 18 18 17 16 15 14 13 13 13 14 16 16 15 17 19 20 23 25 25 27 28 24 22 25 24 18 24 38 44 42 42 42 35 32 40 48 49 50 54 56 55 57
11 12 13 14 15 17 17 17 17 17 18 18 17 17 18 18 19 19 18 17 18 19 19 18 17 15 15 16 17 17 16 16 17 18 19 19 20 21 22 21 22 23 21 20 20 19 18 18 17 15 13 13 14 14 15 17 16 15 17 18 19 22 24 25 26 26 21 18 18 15 16 30 42 42 40 40 37 34 39 46 47 47 51 53 54 55 57
9 10 11 12 13 14 15 16 17 17 18 17 17 18 18 18 19 19 18 19 20 19 19 18 17 16 16 16 17 18 17 17 18 18 20 21 22 23 23 23 23 24 23 22 21 19 19 19 18 16 14 15 16 15 16 17 17 16 17 17 18 21 23 24 26 25 20 16 13 15 25 38 42 39 38 38 37 38 42 45 47 50 51 50 53 55 56
9 10 11 12 12 13 14 14 15 17 18 18 18 18 18 18 19 19 19 21 21 19 19 19 18 17 16 16 17 18 18 18 19 19 20 22 23 24 24 24 24 23 23 22 21 20 20 19 18 17 17 17 17 16 16 17 17 17 17 17 17 21 24 27 28 29 27 24 25 30 38 42 40 37 39 41 41 43 45 46 49 51 49 50 52 54 56
10 10 11 12 13 13 14 14 15 17 18 19 18 18 18 18 20 21 21 21 21 19 20 20 18 18 18 16 17 19 20 19 20 20 21 23 24 25 25 25 24 24 23 22 21 21 20 20 19 18 17 17 17 17 17 17 17 17 19 19 20 23 26 29 32 35 35 33 33 38 42 42 40 39 40 42 43 45 47 49 50 51 50 50 51 55 60
9 10 11 12 13 14 14 15 16 16 18 19 19 18 19 19 21 22 22 21 20 20 20 20 19 19 18 17 17 20 21 21 21 22 23 24 26 26 26 26 25 25 24 23 22 21 20 20 19 18 18 18 18 18 18 18 18 19 19 20 22 25 28 31 34 37 38 36 37 41 44 44 43 44 45 46 46 47 48 49 50 52 52 52 53 57 61
9 10 11 12 13 14 15 16 16 16 17 18 18 19 19 20 22 22 21 21 21 20 20 20 19 19 19 18 18 21 22 22 22 23 24 25 26 27 27 27 26 25 24 23 22 21 21 20 19 19 19 19 19 19 19 19 19 20 20 20 22 26 29 33 36 38 39 39 41 44 45 44 44 46 47 47 47 49 50 49 50 51 52 54 56 59 61
10 12 12 13 14 15 16 16 17 17 17 18 19 19 20 20 21 22 21 21 21 20 20 20 19 19 20 19 19 22 23 23 23 24 25 26 27 27 27 27 27 26 25 24 23 22 21 20 19 19 20 20 21 20 20 20 20 20 20 20 23 28 31 34 37 40 41 41 43 46 48 47 47 46 46 45 47 50 50 50 50 50 51 55 58 60 61
12 13 14 15 16 16 16 17 17 17 18 18 19 19 20 20 21 21 21 21 21 19 19 20 19 20 20 19 20 23 23 23 24 25 26 27 28 28 28 28 27 26 25 24 23 22 21 20 20 20 20 21 21 21 21 21 21 21 20 21 24 29 33 35 39 43 43 41 43 45 47 48 48 47 46 45 46 49 50 49 49 48 50 54 58 60 59
14 15 15 16 16 16 16 16 17 17 18 18 19 19 19 20 21 21 21 21 20 19 19 20 20 20 20 19 21 23 24 24 25 26 27 28 29 29 29 28 27 26 26 25 24 22 22 21 21 21 21 21 22 23 22 22 22 22 21 22 24 29 33 36 40 43 43 42 42 43 44 45 46 46 45 45 46 49 50 48 47 47 49 53 57 59 59
15 15 16 16 16 16 16 16 17 17 17 18 19 19 19 20 20 21 21 20 20 20 20 20 20 21 20 20 22 24 24 25 26 27 28 29 30 30 30 28 27 27 27 26 25 23 22 22 22 21 21 22 23 24 23 23 24 24 23 23 26 30 33 36 40 43 43 42 42 43 44 45 46 45 45 45 47 49 49 48 47 47 49 52 55 57 57
15 15 16 16 16 16 16 16 17 17 18 18 18 19 19 19 20 20 20 20 20 20 21 20 21 21 20 21 24 25 25 26 28 29 29 30 31 30 30 29 28 28 27 26 25 24 23 23 22 22 23 23 23 24 24 25 26 25 24 25 29 32 35 37 41 44 44 43 43 44 44 45 46 47 46 47 48 49 50 49 48 47 48 51 54 55 55
14 15 15 15 15 15 16 16 16 17 17 17 17 18 18 19 19 20 20 20 20 21 21 21 21 21 21 23 25 25 26 28 29 30 31 32 32 31 31 30 29 29 28 26 25 24 23 23 23 24 24 23 23 24 25 25 26 26 26 28 31 34 36 39 42 44 43 43 44 45 45 45 47 48 49 49 49 49 50 49 48 48 48 50 52 53 53
13 13 14 14 14 14 15 15 15 16 16 17 17 18 18 19 20 20 20 19 20 21 21 21 22 22 22 23 25 26 27 29 30 31 33 33 32 32 31 30 29 28 27 26 25 25 24 24 24 25 25 24 24 26 25 24 25 26 27 30 34 36 38 41 43 44 43 43 45 47 48 48 48 49 50 50 49 49 50 50 50 49 49 50 52 53 53
12 13 13 13 14 14 14 14 15 16 16 17 17 18 19 19 19 19 19 19 20 21 21 21 21 22 23 24 25 26 28 29 31 32 33 33 32 32 31 30 29 28 27 26 25 25 25 25 25 26 26 25 25 26 25 24 24 25 28 32 36 39 40 42 44 44 43 44 45 47 49 49 49 49 50 49 49 50 51 51 51 50 50 51 53 54 55
12 13 13 14 14 14 14 15 16 16 17 17 17 18 19 19 18 18 18 19 20 21 21 21 22 22 24 24 25 26 29 30 31 32 33 32 32 32 30 29 28 27 26 25 24 24 25 25 25 25 25 25 25 25 25 24 24 26 30 35 39 41 43 45 46 45 44 44 46 47 48 49 49 50 50 50 50 51 51 51 52 52 53 53 54 55 56
13 14 14 15 15 15 16 16 16 17 17 17 18 18 18 17 17 17 18 19 20 21 21 21 22 23 24 24 25 27 30 31 32 32 32 32 32 31 29 27 27 26 26 25 23 23 24 24 24 25 25 25 24 25 24 24 24 27 32 38 42 44 46 47 47 46 45 44 45 47 47 48 50 51 52 52 52 53 53 53 53 54 55 55 55 55 56
15 15 15 15 16 16 16 17 17 17 17 17 18 17 17 16 16 16 18 19 20 20 20 21 23 24 26 26 27 29 31 31 31 32 32 32 31 29 28 28 27 26 26 25 23 23 23 23 24 25 25 24 24 24 24 24 24 29 37 43 45 46 47 48 48 47 45 44 45 46 48 50 51 53 54 54 54 54 55 55 55 54 55 55 55 56 56
15 15 15 16 16 17 17 17 17 17 17 17 17 16 15 15 15 16 17 19 19 19 20 22 24 25 26 27 29 30 31 31 32 32 31 31 30 29 28 29 27 26 26 25 23 22 23 23 24 25 24 24 23 24 23 24 27 34 42 46 47 47 47 48 48 48 46 45 45 47 49 51 53 54 55 55 55 55 55 55 55 54 54 55 56 56 57
15 16 16 16 17 17 17 17 17 17 16 16 16 15 14 14 15 16 17 18 18 19 20 22 24 26 27 28 29 30 31 31 31 32 32 31 30 29 29 29 27 26 26 24 22 22 24 25 25 25 23 23 23 23 23 26 32 40 46 48 47 46 47 48 48 47 46 46 46 48 50 52 54 54 55 55 55 55 55 54 54 53 54 55 56 57 57
17 17 17 17 17 17 17 17 16 16 15 15 14 13 13 14 15 16 17 18 18 19 21 24 25 27 28 29 30 31 32 32 31 31 31 30 30 30 30 28 27 26 25 22 22 24 26 26 25 24 23 23 23 23 25 30 38 45 48 48 46 47 47 48 48 46 45 45 46 47 49 51 53 53 54 54 54 55 55 55 54 54 54 55 57 58 59
18 18 18 17 17 16 16 16 15 14 13 13 12 12 13 14 15 16 17 18 19 21 23 25 27 28 28 29 30 30 31 31 31 31 30 29 30 31 29 27 26 25 23 21 24 26 26 25 25 24 24 24 24 25 29 36 44 48 48 47 46 47 48 47 46 45 44 44 45 46 48 50 51 51 52 53 54 55 55 56 55 55 56 57 58 59 61
19 19 18 18 17 16 16 15 15 13 12 11 11 12 14 14 15 17 18 18 20 22 24 26 27 28 29 30 31 31 31 31 31 31 29 29 30 30 28 26 25 23 21 23 26 26 25 24 24 24 24 25 27 30 36 42 46 47 47 46 47 47 48 47 45 43 43 44 45 47 49 50 50 51 51 52 54 54 55 56 56 56 57 58 59 60 62
19 20 19 19 18 17 16 15 14 12 11 11 12 14 14 15 17 18 18 19 21 23 25 26 27 29 30 31 31 31 31 31 31 30 29 30 31 30 28 25 23 22 23 25 25 24 23 23 24 24 25 28 32 37 43 46 47 46 46 47 48 48 47 47 45 42 42 44 46 48 50 51 51 51 52 52 54 54 55 56 57 57 58 59 60 61 63
19 20 20 19 18 17 16 14 12 11 10 11 13 15 15 16 18 19 19 20 22 24 25 26 28 29 30 31 31 30 30 31 30 29 29 30 31 30 28 26 25 25 25 25 23 21 21 22 23 25 29 34 39 44 46 46 46 46 46 47 47 47 47 46 44 42 42 44 46 49 50 52 52 52 52 52 54 55 55 56 57 58 59 60 61 62 63
19 20 20 19 18 17 15 12 11 11 11 12 14 16 16 17 19 19 20 21 23 24 25 27 28 29 30 31 30 30 30 30 29 28 28 29 29 27 26 26 26 26 25 23 21 21 21 22 25 30 35 40 43 45 45 45 46 48 48 47 47 47 47 45 44 43 43 45 47 49 51 52 53 53 53 52 53 55 56 56 56 57 58 59 61 62 63
19 20 20 19 17 16 14 12 12 13 13 14 15 17 17 18 19 20 21 21 23 24 26 27 28 29 30 30 30 29 29 29 28 27 27 29 28 26 26 27 26 24 23 22 22 23 24 27 31 37 41 43 43 43 44 45 47 49 49 48 47 46 46 45 44 43 44 46 48 50 51 53 54 54 54 53 53 54 55 56 57 57 58 60 62 64 66
19 19 19 18 16 15 14 13 13 14 15 15 16 17 18 19 20 21 21 22 23 25 26 28 28 29 30 29 29 29 28 28 26 26 27 28 27 26 27 27 26 24 24 25 25 26 29 34 39 42 43 43 42 42 44 47 48 49 49 48 47 46 45 44 43 44 45 47 49 50 52 53 54 55 55 54 54 54 55 56 56 57 59 61 64 66 68
18 18 18 17 16 16 15 14 14 15 16 16 17 18 18 19 20 21 22 23 24 25 27 28 29 30 30 29 28 28 28 26 25 26 27 27 27 26 26 25 24 25 26 27 29 32 36 39 42 42 42 41 42 44 47 49 49 48 48 48 47 46 45 44 44 45 46 48 49 51 53 54 55 55 55 55 55 55 55 56 57 58 60 62 65 66 67
17 17 17 16 16 16 16 16 16 16 16 17 18 18 19 20 21 22 23 24 25 26 28 29 30 30 30 29 28 27 26 26 25 26 26 27 27 26 25 25 26 27 29 31 34 37 40 41 42 41 40 41 44 47 49 50 49 49 48 47 46 45 45 44 44 45 47 48 50 52 53 55 55 55 55 56 57 57 57 58 59 60 61 63 65 65 65
16 16 16 16 16 16 16 16 17 17 17 18 19 19 20 21 22 23 24 25 25 26 28 30 30 30 29 29 28 27 25 25 26 26 26 27 26 25 26 28 30 31 33 36 39 40 41 41 40 40 40 43 47 49 50 50 49 48 47 47 46 45 44 44 45 46 47 49 51 52 54 55 56 55 55 56 58 59 59 59 61 62 63 63 63 63 63
15 15 15 15 16 16 17 17 17 17 18 19 19 20 21 22 23 24 25 25 26 27 29 30 30 30 29 29 28 26 25 26 27 27 27 27 27 27 29 31 32 34 36 38 39 39 39 39 39 40 42 45 48 50 50 49 48 47 46 46 45 44 44 44 45 47 48 49 51 53 54 55 56 56 56 57 58 60 61 61 62 62 62 61 61 61 62
14 14 14 15 16 16 17 17 17 18 18 19 20 21 22 22 23 25 26 26 26 27 29 30 30 30 30 29 28 27 26 27 27 27 27 28 28 30 32 34 35 36 38 37 36 36 36 37 38 42 45 47 49 50 49 48 46 45 45 44 43 43 43 44 46 48 49 50 51 53 55 56 56 56 57 58 59 61 62 62 60 60 60 60 60 61 62
13 13 14 15 15 16 17 17 18 19 19 20 21 21 22 23 24 25 26 27 27 27 28 29 29 29 29 29 28 28 27 28 28 28 29 30 31 33 34 35 36 37 37 36 35 34 34 36 39 43 46 48 49 49 48 46 45 44 43 43 43 43 44 45 47 48 49 50 52 54 56 57 57 58 59 60 61 62 62 61 59 58 59 61 61 62 62
Wind_Direction
90 88 85 84 82 81 81 79 79 80 78 76 72 68 68 69 74 74 66 60 64 67 71 72 72 75 79 79 77 76 71 67 67 62 56 50 41 37 31 27 25 19 15 11 8 5 355 352 356 355 356 355 347 337 335 347 359 6 8 5 3 3 352 345 346 349 355 353 349 347 342 339 337 336 339 338 338 338 331 314 305 302 297 306 310 290 296
87 86 83 81 80 79 78 77 76 75 75 74 70 64 59 64 72 73 65 58 61 67 69 69 71 74 76 76 72 71 70 67 65 59 50 43 37 31 24 21 18 14 12 7 6 7 359 348 349 351 350 347 342 330 327 339 354 0 4 1 1 4 359 354 352 352 354 348 344 342 336 333 330 327 328 326 326 331 327 319 314 305 297 312 315 282 298
83 82 81 80 78 77 75 74 72 70 67 68 69 66 55 56 69 73 67 60 56 65 68 64 64 69 72 71 68 68 69 66 61 55 47 37 29 22 18 16 12 9 9 4 3 2 357 350 346 345 343 339 337 329 322 328 345 356 1 359 358 0 2 3 359 348 335 324 322 323 317 316 318 318 318 317 321 326 321 317 314 306 306 309 296 284 301
78 76 76 76 76 76 73 70 68 67 67 65 65 66 60 58 69 73 71 63 52 58 66 62 58 62 63 63 66 66 62 57 51 44 39 30 21 15 14 12 6 5 4 1 360 356 352 350 343 338 336 332 332 325 316 317 332 352 358 357 359 360 355 357 353 336 316 308 310 317 310 305 310 312 313 317 321 319 315 315 310 310 310 302 295 297 303
77 74 73 73 74 76 74 71 67 66 68 68 64 63 62 66 70 70 70 66 57 57 64 63 60 58 55 55 61 60 52 46 37 31 28 22 16 11 9 6 2 2 0 357 355 351 348 345 339 335 329 325 326 319 313 309 314 341 354 354 356 357 348 346 346 342 333 323 325 327 312 304 308 308 312 325 322 314 317 319 317 319 309 299 311 317 309
77 75 73 72 74 76 76 75 71 68 69 69 67 66 67 71 73 69 66 68 65 62 63 64 60 53 46 47 52 50 42 36 29 24 18 14 12 7 4 2 358 357 355 352 350 347 344 341 336 333 325 320 322 318 312 305 307 331 348 349 350 352 347 342 343 345 345 336 338 338 324 314 311 304 318 332 320 314 325 326 326 327 310 303 315 318 312
76 75 73 72 73 75 77 77 75 72 72 71 70 69 70 71 73 70 65 65 67 64 61 61 57 48 40 40 45 41 33 27 23 18 13 9 6 3 360 357 354 353 350 348 347 345 343 341 335 331 325 319 320 320 312 304 310 328 342 344 346 349 346 342 342 346 349 346 346 344 332 318 308 297 330 336 325 319 327 328 328 327 321 318 320 318 317
74 74 73 73 73 73 74 76 76 76 74 72 71 70 69 70 70 67 62 61 63 60 56 55 52 44 37 35 37 34 27 21 16 12 10 5 1 360 356 353 351 349 347 345 346 345 342 338 335 330 324 322 322 319 310 306 313 327 338 341 343 346 345 343 343 346 350 351 349 346 334 320 297 305 333 337 332 329 329 327 328 327 327 328 327 321 319
73 73 72 72 72 71 71 73 75 76 75 72 71 71 70 69 69 65 59 59 61 57 53 52 46 39 34 31 31 27 20 15 11 7 5 1 359 357 353 352 349 345 345 344 343 343 339 335 334 329 323 323 324 319 313 310 314 325 335 337 340 343 345 346 346 346 348 349 349 349 343 327 283 320 336 338 331 327 326 327 329 329 328 329 326 319 316
72 71 70 70 70 70 71 72 73 75 76 74 71 70 69 68 67 66 61 59 61 58 54 52 45 36 32 27 24 21 15 11 8 4 1 359 356 354 352 351 348 343 342 342 341 341 338 334 332 329 322 319 323 327 322 315 316 323 330 335 340 344 346 347 348 345 344 348 351 352 350 339 321 334 335 330 322 321 323 326 329 331 329 325 320 318 320
72 71 70 69 69 68 69 70 72 73 74 73 70 67 66 64 64 65 61 58 60 58 54 50 43 36 31 24 20 18 13 8 4 1 359 357 354 353 352 349 346 343 341 340 340 339 337 334 331 328 323 314 316 327 325 318 318 323 329 335 341 344 345 348 351 346 343 348 352 356 11 4 332 328 324 318 319 325 326 326 330 333 332 327 322 322 326
71 70 69 68 68 67 66 65 66 67 68 68 65 62 61 60 59 59 58 57 59 58 53 49 42 35 29 24 19 15 10 7 3 359 358 356 354 352 351 348 344 342 340 339 339 337 335 334 329 324 320 311 307 316 322 320 319 324 330 334 339 343 346 351 354 348 344 349 354 3 17 330 322 317 316 321 325 328 328 327 333 337 331 325 326 327 327
69 67 65 65 64 64 64 62 59 58 58 61 62 58 55 54 54 53 52 53 56 56 52 47 43 35 28 23 18 13 10 5 1 359 356 355 353 349 348 346 343 341 340 338 338 336 333 331 326 319 314 307 303 307 316 317 316 323 330 332 338 346 351 355 355 351 348 348 352 353 326 326 329 325 328 330 330 332 331 329 335 340 329 323 326 325 324
65 62 60 60 58 58 59 58 56 52 48 53 58 56 50 50 50 49 47 47 50 52 50 45 41 35 28 22 16 11 9 4 360 358 355 352 350 347 345 344 342 340 338 338 337 335 331 327 321 313 307 305 304 305 310 311 313 323 329 333 341 349 353 356 356 354 352 345 336 330 329 332 337 332 332 331 331 334 331 324 329 339 332 326 328 326 327
58 55 54 53 52 52 53 53 53 50 43 44 50 51 47 45 45 43 41 40 43 46 46 43 39 34 27 20 15 10 7 3 359 356 353 350 347 344 342 341 340 339 337 336 336 332 327 323 315 304 296 294 299 306 310 311 316 325 331 336 345 349 353 358 358 354 355 348 333 333 336 333 332 329 330 332 331 333 330 322 326 338 335 331 332 330 330
55 53 50 48 48 48 48 48 48 46 41 38 41 44 42 40 39 37 35 34 36 38 41 40 37 32 26 19 13 9 6 3 359 355 352 348 343 342 341 339 338 337 336 335 334 329 323 319 311 302 294 292 301 310 314 315 319 327 334 339 346 350 352 357 357 356 358 353 333 317 311 311 325 329 332 333 331 333 332 322 323 335 336 334 335 332 330
54 52 50 48 47 45 46 46 43 41 39 34 32 36 36 33 32 31 29 28 30 33 35 35 33 29 24 18 12 8 5 1 358 354 350 346 341 340 339 338 336 336 334 333 331 326 321 317 310 304 299 299 305 309 314 319 322 328 336 340 347 352 353 355 356 355 356 351 337 324 317 313 323 331 334 334 332 336 339 322 320 332 335 335 334 331 331
51 49 47 46 44 43 43 43 39 36 34 30 27 29 31 28 26 26 24 21 24 29 30 30 28 25 22 17 10 7 4 359 356 352 347 343 340 338 337 336 336 335 333 332 329 323 319 316 311 306 300 300 305 308 314 323 325 330 338 342 347 352 353 354 354 352 352 350 337 327 327 330 332 334 334 334 336 342 343 323 320 327 331 333 332 331 333
40 40 40 39 38 37 37 37 35 32 29 27 23 23 26 24 21 21 20 15 20 26 26 24 23 20 18 15 10 5 2 357 354 350 345 343 341 338 337 335 334 333 332 330 326 322 319 317 313 308 300 300 304 306 313 322 325 330 339 344 349 352 351 351 351 350 350 345 337 331 331 335 335 335 336 339 341 341 331 322 323 326 329 332 333 333 335
23 24 25 25 27 28 27 27 26 23 24 22 17 17 22 20 16 17 16 12 16 22 21 19 19 17 14 12 8 4 1 357 353 349 345 343 341 339 339 337 335 334 333 331 327 323 320 318 316 309 301 301 305 306 313 322 325 330 339 345 349 352 351 348 348 349 345 337 336 335 325 330 336 338 339 342 340 332 325 325 328 331 333 333 334 335 337
5 7 9 10 13 15 16 16 15 14 16 14 10 12 17 15 13 14 12 10 14 18 15 14 15 13 10 8 5 3 0 356 352 349 345 343 342 341 339 338 336 334 333 331 328 325 321 319 315 309 302 303 305 306 313 320 323 329 338 344 347 351 352 349 346 347 341 328 325 327 326 333 341 342 338 338 337 334 332 331 332 334 336 336 336 337 338
343 349 353 357 360 2 3 5 5 5 7 6 4 7 11 11 10 9 8 9 12 12 11 12 12 9 6 4 2 2 360 356 351 348 346 344 343 340 338 336 335 334 333 330 326 323 320 316 312 307 303 303 303 304 311 317 320 326 335 340 343 346 349 349 347 344 340 335 333 334 335 340 346 343 338 339 340 339 338 337 336 337 338 338 338 339 339
326 332 340 344 348 351 353 355 357 358 359 359 0 3 5 5 5 5 6 9 9 7 7 9 8 6 4 1 360 360 358 354 350 347 346 344 342 339 337 336 335 334 332 329 326 323 319 315 311 308 305 303 303 305 311 315 318 325 331 334 339 343 346 347 346 344 342 342 340 338 339 343 345 342 341 342 342 340 340 340 339 339 339 340 340 340 339
324 328 334 337 340 344 346 349 351 351 352 354 356 357 358 1 3 4 5 7 5 4 6 6 4 3 1 359 359 358 355 352 349 347 347 344 341 339 338 336 335 334 332 330 327 324 320 316 313 309 305 304 304 306 309 312 316 322 328 331 337 342 342 343 344 343 342 341 339 338 341 344 343 341 342 342 341 341 342 342 341 341 341 342 342 341 340
338 338 339 338 339 340 341 342 343 344 346 349 351 353 355 359 2 3 4 4 3 3 4 3 1 0 360 359 358 356 353 352 350 347 346 343 341 339 338 336 335 334 333 331 329 325 322 317 313 309 306 306 307 307 307 310 314 320 325 330 335 339 340 341 341 341 340 339 339 338 340 343 343 342 343 342 339 340 343 343 342 342 342 343 344 345 342
342 343 342 340 339 337 336 336 337 339 343 346 348 352 356 358 360 1 1 1 2 2 1 0 358 358 359 358 356 354 353 352 349 347 345 343 341 339 338 336 335 334 333 332 330 327 323 318 313 310 308 307 307 306 305 308 313 318 324 331 335 337 339 338 337 338 340 340 339 338 339 342 344 343 342 340 339 340 343 344 343 343 344 344 346 347 345
336 336 336 335 335 334 332 332 333 336 341 344 348 353 355 356 358 359 359 359 0 0 359 358 358 357 358 357 355 353 352 351 349 346 345 343 342 340 338 336 335 334 333 332 331 328 324 319 315 311 309 307 307 307 307 310 314 318 323 330 336 337 337 336 335 337 339 338 337 338 338 340 342 341 341 341 340 340 343 344 344 345 346 346 347 348 347
326 327 327 327 328 328 328 329 333 338 341 344 349 352 354 356 357 357 356 357 359 358 357 358 358 357 356 355 354 353 352 351 349 347 345 344 342 340 338 337 335 335 334 333 332 329 324 320 317 313 310 308 307 307 308 310 315 320 323 329 334 336 335 335 334 335 336 336 336 337 338 338 339 340 341 342 341 341 344 345 344 345 348 349 348 349 349
315 315 316 318 321 324 327 331 335 339 342 346 349 351 352 355 355 354 353 355 356 356 357 358 358 356 354 354 353 352 352 351 349 347 346 344 343 341 339 338 337 336 336 334 333 329 325 321 319 314 311 310 308 307 308 311 316 321 323 327 332 334 334 333 333 334 334 334 335 336 338 338 339 340 341 342 342 343 344 344 344 346 349 350 350 352 353
309 310 311 315 320 325 330 335 338 341 344 346 348 350 351 352 351 350 351 352 354 356 358 358 357 356 355 354 353 352 351 350 349 348 346 345 344 342 341 339 338 337 335 334 332 329 325 322 320 316 312 311 308 306 308 312 317 321 324 327 332 333 333 332 332 333 333 333 333 335 337 338 339 340 342 343 343 343 343 343 344 347 349 349 351 355 357
311 312 314 320 325 330 334 338 340 342 343 345 348 350 350 348 348 349 350 352 353 356 358 358 357 356 355 353 352 352 352 351 350 348 347 346 345 344 341 340 338 336 335 333 331 328 326 323 321 317 314 311 307 306 308 312 318 322 325 329 332 332 332 331 332 333 332 331 332 334 337 339 340 341 342 343 342 342 342 343 345 347 348 349 351 354 357
313 316 320 323 328 332 336 339 340 339 341 344 348 349 347 346 347 348 350 351 353 355 357 357 358 357 355 352 352 352 352 351 350 349 347 346 345 343 341 340 338 336 335 333 331 329 327 325 321 318 315 312 309 308 310 314 320 324 327 330 331 331 330 331 333 333 331 330 331 333 337 340 341 341 341 341 341 342 343 344 346 346 346 347 349 352 354
316 318 320 323 327 332 334 335 336 337 341 344 346 345 345 345 347 347 349 352 354 355 356 357 357 357 354 352 352 352 352 351 351 350 348 346 344 343 341 340 339 337 336 334 331 328 327 326 323 320 318 316 313 312 313 317 321 325 329 331 331 330 330 331 333 333 331 330 332 335 338 340 341 340 340 341 342 342 344 345 345 345 346 346 347 349 351
315 317 320 324 328 329 330 332 335 338 341 342 343 344 344 344 346 348 350 353 354 354 355 356 356 356 355 353 352 352 352 352 352 350 348 346 344 343 342 342 340 338 336 335 333 330 328 327 325 322 321 320 317 315 316 319 322 326 331 332 331 330 331 332 332 332 331 331 333 336 338 339 339 339 340 341 342 343 344 345 345 345 345 345 346 347 348
317 321 324 326 327 327 328 331 335 338 340 341 342 343 342 344 348 351 352 354 354 354 354 354 353 354 354 353 353 353 352 352 352 350 348 346 345 344 343 343 341 339 337 337 335 333 330 328 327 326 325 324 322 320 319 320 322 327 332 333 332 331 331 331 331 331 331 331 333 336 337 337 338 338 340 342 343 343 344 344 345 344 344 344 344 345 345
324 326 326 326 326 327 329 333 336 338 340 341 341 341 342 346 351 353 353 354 354 353 352 352 352 353 354 354 354 354 353 352 352 350 348 347 347 346 345 344 342 340 339 339 338 335 333 331 330 330 329 329 326 323 321 320 322 328 332 332 332 331 330 330 330 331 331 332 334 335 336 337 339 340 341 342 343 342 342 343 343 344 343 342 342 342 343
332 330 328 328 329 331 333 335 337 338 339 339 339 340 344 349 352 354 354 353 352 351 351 352 352 354 354 354 353 353 352 351 352 351 350 349 349 348 347 346 344 342 341 341 340 337 336 334 333 333 333 332 328 324 321 319 323 328 331 331 331 330 329 329 330 330 330 331 333 334 335 337 339 340 340 341 342 341 341 342 342 343 342 341 340 340 340
340 337 335 335 336 337 336 336 337 338 338 339 339 342 347 352 353 354 353 351 349 349 351 352 352 353 354 353 352 351 351 351 352 352 351 351 351 351 349 347 344 342 341 341 340 339 338 337 336 337 336 334 330 326 322 321 325 328 330 330 329 329 329 329 329 329 330 331 332 334 335 337 339 340 341 341 341 341 341 341 342 341 341 341 339 338 338
347 345 343 341 340 338 337 336 336 338 338 339 342 347 351 352 352 352 351 350 349 348 350 351 352 353 353 353 351 350 349 350 352 352 351 352 353 352 350 347 343 342 341 341 340 340 338 337 338 339 338 335 331 327 324 324 327 329 329 329 329 329 329 329 329 329 330 332 334 335 337 338 339 340 340 340 340 340 340 340 340 340 340 340 339 338 337
352 350 347 344 341 339 338 337 337 340 342 343 349 353 351 349 350 351 351 350 349 349 350 351 351 351 351 351 351 350 349 349 351 352 352 353 353 352 350 346 343 342 342 340 340 339 338 337 339 339 337 334 330 327 326 327 328 329 328 328 329 329 329 330 330 330 330 332 335 336 337 338 339 340 339 338 338 339 340 339 340 340 340 340 339 338 337
352 351 349 346 343 341 341 340 339 344 349 352 353 353 349 348 350 351 351 350 349 348 348 348 349 349 349 349 349 349 349 349 350 351 352 352 352 352 351 348 345 343 340 338 338 338 338 338 338 337 333 330 328 327 327 327 328 328 328 329 329 329 330 331 331 330 331 333 335 337 338 339 340 340 339 338 338 338 338 338 338 339 340 340 339 338 337
350 349 349 347 345 343 343 343 344 350 355 355 352 350 349 349 350 350 349 348 347 346 346 346 347 347 348 348 348 349 348 348 349 351 352 352 351 351 350 348 347 343 337 335 337 338 338 335 334 332 330 328 327 326 326 327 328 329 329 329 329 330 331 332 332 331 332 333 335 337 338 339 340 340 340 339 338 338 338 338 338 338 339 339 339 338 337
348 349 349 348 347 345 345 346 350 354 354 351 350 349 348 347 347 347 346 345 344 343 343 344 345 345 346 347 347 348 347 347 348 350 351 351 350 349 348 347 344 339 336 336 338 338 336 332 330 329 328 327 326 326 327 328 329 330 330 330 330 330 332 332 332 332 333 334 336 338 339 340 340 340 340 339 338 337 337 338 338 338 338 339 339 339 337
346 348 349 348 348 348 348 349 351 353 351 347 346 346 345 344 343 342 341 340 341 341 341 342 343 343 344 345 346 346 346 346 347 348 349 349 348 347 346 343 340 337 337 338 338 336 334 331 329 327 326 326 326 327 328 329 330 330 330 331 331 331 332 332 332 333 334 335 337 338 339 340 340 340 340 340 338 337 337 338 338 338 338 338 338 337 336
345 347 348 348 349 351 351 350 348 347 346 343 341 341 340 339 337 337 336 336 337 338 339 339 341 341 343 344 345 345 344 345 346 346 346 346 346 345 343 340 339 338 339 339 337 335 333 330 328 326 326 327 328 329 330 330 330 329 330 331 332 332 332 332 333 333 335 336 338 339 340 340 340 340 340 339 338 338 337 338 338 338 338 338 337 336 336
342 345 347 348 349 350 351 348 345 342 340 338 336 335 335 333 332 332 332 333 335 336 336 337 338 340 341 343 344 344 343 343 343 344 344 344 344 343 342 341 342 341 339 337 336 334 331 328 327 327 327 328 330 331 331 330 330 329 330 331 332 332 332 332 333 334 336 337 339 340 340 340 340 339 339 339 339 338 338 338 338 338 337 337 337 337 336
340 342 345 347 347 347 346 344 340 338 336 334 332 331 331 330 329 329 328 331 333 334 334 335 337 338 339 341 342 342 342 341 341 343 343 342 342 342 343 342 342 340 336 334 333 331 328 326 327 328 328 329 331 332 331 330 330 330 330 332 333 332 332 333 334 335 336 338 339 340 340 340 340 339 338 338 339 338 338 338 338 338 337 337 337 337 337
336 339 342 344 343 342 341 339 337 335 334 332 330 330 329 327 326 326 327 329 330 331 331 333 335 336 337 339 341 341 340 339 340 342 342 341 342 343 342 340 338 337 334 331 330 328 327 326 328 330 330 330 331 331 331 331 330 330 331 332 332 332 333 334 335 336 337 338 339 340 340 340 340 339 338 338 338 339 339 339 338 337 337 337 337 338 339
332 335 338 340 340 338 337 336 335 334 333 331 329 329 327 326 325 324 325 326 328 329 330 331 333 334 336 338 339 340 339 339 339 340 341 341 341 340 338 336 335 335 333 331 329 328 327 327 328 330 330 330 330 331 331 331 331 331 331 332 332 333 334 335 335 337 338 339 339 340 341 340 340 339 339 338 339 339 340 340 338 337 337 338 339 340 342
330 330 333 335 336 335 335 334 333 331 330 329 328 326 325 324 323 323 323 324 325 328 329 330 331 333 335 337 338 339 337 336 336 337 338 339 339 336 335 334 333 331 330 330 329 328 327 327 328 328 329 330 330 330 331 331 331 331 332 332 332 334 335 335 336 337 338 339 340 341 342 341 340 340 339 339 339 339 339 339 339 339 339 341 342 343 344
327 326 328 330 331 331 331 331 330 329 327 326 324 323 322 322 322 321 321 322 324 327 328 329 330 332 334 336 337 335 333 331 332 334 336 337 335 333 333 333 331 329 328 330 330 328 327 327 326 327 328 330 330 330 331 332 332 332 332 332 333 334 335 336 337 338 339 340 341 342 342 342 341 340 340 340 339 339 339 340 341 342 343 344 345 346 346
325 323 323 324 325 326 326 326 326 326 326 324 323 321 320 320 320 319 319 320 324 326 326 327 329 331 331 332 332 331 329 327 328 331 334 334 332 331 332 331 329 328 329 329 329 329 327 326 326 327 329 330 330 331 331 332 333 333 332 332 333 334 336 337 338 339 340 341 342 343 343 342 341 341 341 341 340 339 340 342 344 345 345 345 346 346 347
Height
3174 3174 3174 3174 3174 3174 3174 3175 3175 3175 3175 3175 3175 3175 3175 3175 3175 3174 3174 3174 3173 3173 3173 3173 3173 3173 3173 3173 3174 3174 3174 3173 3172 3172 3172 3171 3170 3170 3169 3168 3167 3166 3165 3164 3162 3161 3159 3158 3157 3156 3155 3153 3152 3150 3149 3148 3146 3145 3143 3142 3140 3138 3135 3131 3127 3124 3122 3120 3118 3117 3115 3113 3109 3107 3105 3105 3105 3105 3105 3103 3097 3094 3090 3087 3084 3070 3051
3175 3175 3176 3176 3176 3176 3176 3176 3176 3176 3176 3176 3176 3176 3177 3176 3176 3176 3175 3175 3174 3174 3174 3174 3174 3174 3174 3174 3174 3174 3173 3173 3173 3172 3172 3171 3171 3170 3169 3168 3167 3166 3165 3163 3162 3160 3159 3158 3156 3155 3154 3152 3151 3149 3148 3147 3145 3144 3142 3141 3139 3138 3136 3132 3127 3123 3121 3118 3117 3116 3114 3113 3110 3108 3106 3104 3105 3104 3102 3100 3097 3092 3088 3087 3085 3068 3047
3177 3177 3178 3178 3178 3178 3178 3178 3177 3177 3177 3177 3177 3178 3178 3177 3177 3177 3176 3176 3176 3175 3174 3175 3175 3174 3174 3174 3174 3174 3173 3173 3173 3173 3172 3172 3171 3171 3170 3168 3167 3166 3165 3163 3161 3160 3158 3157 3155 3154 3152 3151 3149 3148 3147 3146 3145 3143 3142 3140 3139 3137 3136 3134 3132 3130 3127 3123 3121 3119 3116 3113 3111 3108 3107 3104 3103 3103 3101 3099 3096 3091 3085 3083 3083 3069 3048
3179 3179 3179 3179 3179 3179 3179 3179 3179 3178 3178 3178 3178 3178 3179 3178 3178 3177 3177 3177 3177 3176 3175 3176 3175 3174 3175 3174 3174 3174 3174 3174 3174 3173 3173 3172 3172 3171 3170 3169 3167 3166 3165 3163 3161 3160 3158 3157 3155 3153 3152 3150 3149 3147 3146 3145 3144 3143 3141 3139 3138 3137 3135 3135 3133 3133 3130 3125 3123 3121 3117 3113 3110 3107 3105 3103 3101 3100 3099 3097 3095 3091 3083 3075 3074 3070 3052
3181 3181 3181 3181 3181 3180 3180 3180 3180 3180 3179 3179 3179 3179 3180 3179 3179 3178 3178 3178 3178 3177 3176 3177 3176 3175 3175 3175 3175 3175 3175 3175 3174 3174 3173 3173 3172 3171 3170 3169 3168 3166 3165 3163 3161 3159 3158 3156 3154 3152 3151 3149 3148 3147 3145 3144 3143 3142 3140 3139 3137 3136 3134 3133 3132 3129 3127 3123 3120 3118 3115 3111 3108 3105 3103 3101 3099 3097 3096 3095 3092 3090 3083 3070 3064 3065 3055
3183 3183 3183 3183 3183 3182 3182 3182 3181 3181 3181 3181 3181 3181 3181 3180 3180 3179 3179 3179 3179 3178 3178 3177 3177 3177 3177 3176 3176 3176 3176 3175 3175 3174 3173 3173 3172 3171 3170 3169 3167 3166 3164 3163 3161 3159 3157 3156 3154 3152 3150 3149 3147 3146 3145 3144 3142 3141 3139 3138 3136 3135 3133 3131 3128 3126 3123 3121 3117 3114 3111 3108 3104 3102 3102 3100 3097 3095 3093 3091 3088 3087 3084 3071 3061 3058 3052
3186 3186 3185 3185 3185 3185 3184 3184 3183 3183 3183 3182 3183 3183 3182 3181 3180 3180 3180 3180 3179 3179 3179 3178 3178 3178 3178 3177 3177 3177 3176 3175 3175 3174 3174 3173 3172 3171 3169 3168 3167 3165 3164 3162 3160 3158 3157 3155 3153 3151 3150 3148 3147 3146 3144 3143 3142 3140 3139 3137 3135 3133 3131 3128 3125 3122 3120 3117 3114 3110 3107 3104 3101 3100 3100 3097 3095 3093 3091 3088 3085 3083 3079 3072 3063 3055 3048
3188 3188 3188 3188 3187 3187 3187 3186 3185 3185 3185 3185 3185 3184 3183 3182 3181 3181 3181 3181 3180 3180 3179 3179 3179 3179 3179 3178 3178 3177 3177 3176 3175 3174 3174 3172 3171 3170 3169 3167 3166 3164 3163 3161 3159 3157 3156 3154 3153 3151 3150 3148 3147 3146 3144 3143 3142 3140 3138 3136 3134 3132 3130 3127 3123 3120 3117 3114 3111 3108 3104 3101 3099 3098 3097 3095 3092 3091 3089 3086 3083 3077 3070 3064 3060 3051 3043
3191 3191 3191 3190 3190 3190 3189 3189 3188 3187 3187 3187 3187 3186 3185 3184 3183 3182 3183 3182 3181 3181 3181 3180 3180 3180 3179 3179 3178 3178 3177 3176 3175 3174 3173 3172 3171 3169 3168 3167 3165 3163 3162 3160 3159 3157 3155 3153 3152 3151 3150 3148 3147 3146 3144 3143 3141 3139 3137 3135 3133 3131 3128 3124 3120 3117 3115 3112 3108 3104 3100 3098 3097 3096 3094 3092 3090 3088 3086 3084 3081 3075 3066 3058 3053 3046 3039
3194 3194 3193 3193 3193 3192 3192 3192 3191 3190 3190 3190 3189 3188 3187 3186 3184 3184 3184 3183 3182 3182 3182 3181 3181 3180 3180 3179 3178 3178 3177 3176 3175 3174 3173 3171 3170 3169 3168 3166 3165 3163 3161 3160 3158 3156 3154 3152 3151 3150 3149 3148 3146 3145 3143 3141 3140 3138 3136 3134 3132 3129 3126 3123 3119 3115 3111 3109 3105 3101 3098 3096 3095 3094 3092 3090 3089 3086 3082 3080 3077 3072 3066 3058 3051 3044 3037
3197 3197 3196 3196 3196 3195 3195 3195 3194 3194 3193 3192 3191 3190 3189 3188 3187 3186 3185 3185 3183 3183 3182 3182 3181 3181 3180 3179 3178 3177 3176 3175 3174 3173 3172 3171 3170 3168 3167 3166 3164 3163 3161 3159 3157 3155 3153 3151 3149 3148 3147 3146 3145 3143 3141 3140 3138 3137 3135 3133 3130 3128 3125 3122 3119 3114 3110 3106 3102 3098 3096 3095 3095 3094 3092 3090 3087 3083 3077 3073 3070 3067 3063 3058 3051 3043 3035
3200 3200 3199 3199 3199 3198 3198 3197 3197 3196 3195 3194 3193 3192 3191 3190 3189 3188 3187 3186 3185 3184 3183 3182 3182 3181 3180 3179 3178 3177 3176 3175 3174 3173 3172 3170 3169 3168 3167 3166 3164 3162 3160 3158 3156 3153 3151 3149 3148 3146 3145 3144 3143 3141 3139 3138 3137 3135 3133 3131 3129 3127 3124 3120 3117 3114 3109 3104 3099 3096 3096 3096 3095 3092 3091 3089 3086 3082 3074 3069 3068 3065 3059 3053 3047 3040 3034
3202 3202 3202 3201 3201 3200 3200 3200 3199 3199 3198 3196 3195 3194 3193 3192 3191 3190 3189 3188 3186 3185 3184 3183 3182 3181 3180 3179 3178 3177 3176 3175 3173 3172 3171 3170 3169 3168 3166 3165 3163 3161 3159 3157 3154 3152 3150 3148 3146 3144 3143 3142 3140 3139 3137 3136 3135 3133 3132 3130 3128 3126 3123 3119 3116 3112 3108 3104 3102 3101 3099 3096 3093 3090 3088 3086 3082 3078 3070 3060 3060 3061 3056 3048 3043 3037 3031
3204 3204 3204 3203 3203 3202 3202 3201 3201 3200 3199 3197 3196 3196 3195 3193 3192 3191 3190 3189 3187 3186 3185 3184 3183 3182 3180 3179 3178 3177 3176 3175 3173 3172 3171 3170 3169 3167 3165 3164 3162 3160 3158 3156 3153 3151 3149 3147 3145 3143 3141 3140 3138 3136 3135 3134 3133 3132 3130 3128 3126 3124 3121 3118 3115 3112 3109 3106 3103 3100 3095 3092 3091 3089 3087 3084 3079 3076 3070 3058 3051 3052 3051 3046 3039 3031 3024
3206 3205 3205 3205 3204 3204 3203 3202 3201 3201 3200 3199 3197 3197 3196 3194 3193 3192 3191 3190 3188 3186 3185 3184 3183 3182 3181 3179 3178 3177 3176 3175 3174 3172 3171 3169 3168 3166 3164 3163 3160 3158 3156 3154 3152 3150 3148 3146 3144 3142 3140 3138 3137 3135 3134 3133 3131 3130 3128 3126 3124 3122 3119 3117 3115 3112 3109 3105 3101 3097 3093 3091 3090 3088 3086 3083 3078 3074 3071 3059 3048 3047 3047 3042 3035 3026 3018
3207 3207 3206 3206 3205 3205 3204 3203 3202 3201 3200 3199 3198 3197 3196 3195 3194 3193 3192 3190 3189 3187 3186 3185 3183 3182 3181 3180 3179 3177 3176 3175 3174 3172 3171 3169 3167 3165 3163 3161 3159 3157 3155 3153 3151 3149 3147 3145 3143 3141 3139 3137 3136 3134 3132 3131 3129 3128 3127 3124 3122 3120 3117 3115 3113 3110 3107 3104 3101 3098 3094 3090 3089 3087 3083 3080 3075 3070 3066 3057 3048 3045 3043 3037 3030 3023 3016
3209 3208 3208 3207 3207 3206 3205 3204 3203 3202 3201 3200 3199 3198 3197 3196 3195 3193 3192 3191 3190 3188 3186 3185 3184 3182 3181 3180 3179 3177 3176 3175 3173 3172 3170 3168 3166 3164 3162 3160 3158 3156 3154 3151 3149 3147 3146 3144 3142 3140 3138 3136 3135 3133 3131 3130 3128 3126 3125 3122 3120 3118 3115 3113 3110 3108 3105 3103 3100 3098 3095 3090 3088 3085 3080 3076 3071 3065 3060 3054 3046 3041 3038 3033 3027 3021 3014
3210 3210 3209 3208 3208 3207 3206 3205 3204 3203 3201 3200 3200 3199 3197 3196 3195 3194 3192 3191 3190 3188 3186 3185 3184 3182 3181 3180 3179 3177 3176 3174 3173 3171 3169 3168 3166 3163 3161 3159 3157 3155 3153 3150 3148 3146 3144 3143 3141 3139 3137 3135 3134 3132 3130 3128 3126 3124 3122 3120 3118 3116 3113 3111 3109 3106 3104 3102 3099 3095 3093 3090 3086 3082 3078 3072 3065 3060 3058 3054 3046 3038 3033 3029 3025 3018 3012
3211 3211 3210 3209 3209 3208 3207 3206 3204 3203 3202 3201 3200 3199 3198 3197 3196 3194 3193 3192 3190 3188 3186 3185 3184 3183 3181 3180 3178 3177 3175 3174 3172 3171 3169 3167 3165 3163 3160 3158 3156 3154 3152 3150 3148 3145 3143 3141 3139 3138 3136 3134 3132 3130 3129 3127 3125 3123 3121 3119 3116 3114 3111 3109 3107 3105 3102 3100 3097 3093 3090 3088 3085 3080 3075 3069 3062 3058 3057 3052 3045 3038 3031 3026 3020 3015 3009
3212 3212 3211 3210 3210 3209 3208 3206 3205 3204 3203 3202 3201 3199 3198 3197 3196 3194 3193 3192 3190 3188 3187 3185 3184 3182 3181 3180 3178 3177 3175 3173 3172 3170 3168 3166 3164 3162 3159 3157 3155 3153 3151 3148 3146 3144 3142 3140 3138 3136 3134 3133 3131 3129 3127 3125 3123 3121 3119 3117 3115 3113 3111 3108 3105 3103 3101 3099 3097 3093 3089 3086 3081 3075 3070 3066 3063 3060 3055 3047 3041 3036 3030 3023 3017 3011 3006
3213 3212 3212 3211 3210 3209 3208 3207 3206 3204 3203 3202 3201 3200 3198 3197 3196 3194 3193 3192 3190 3188 3187 3185 3184 3182 3180 3179 3178 3176 3175 3173 3171 3169 3167 3165 3163 3160 3158 3156 3154 3152 3149 3147 3145 3143 3141 3139 3137 3135 3133 3132 3130 3128 3126 3124 3122 3120 3118 3116 3114 3113 3111 3108 3105 3102 3100 3098 3096 3094 3089 3084 3078 3073 3068 3065 3062 3058 3051 3043 3037 3032 3027 3021 3014 3008 3002
3213 3212 3212 3211 3210 3210 3208 3207 3206 3204 3203 3202 3201 3200 3198 3197 3196 3194 3193 3191 3189 3188 3187 3185 3183 3182 3180 3179 3177 3176 3174 3172 3170 3168 3166 3164 3162 3160 3158 3156 3153 3151 3149 3146 3144 3142 3140 3138 3136 3134 3132 3131 3129 3127 3125 3123 3121 3119 3117 3115 3113 3112 3110 3108 3105 3102 3100 3096 3093 3090 3085 3081 3077 3072 3067 3063 3058 3053 3047 3041 3035 3029 3024 3019 3011 3004 2999
3213 3212 3212 3211 3210 3209 3208 3207 3206 3204 3203 3202 3200 3199 3198 3197 3196 3194 3192 3191 3189 3187 3186 3184 3182 3181 3179 3178 3177 3175 3173 3172 3169 3167 3165 3163 3161 3159 3156 3154 3152 3150 3148 3145 3143 3141 3139 3137 3135 3133 3131 3129 3128 3126 3124 3122 3120 3118 3116 3114 3112 3110 3107 3105 3103 3099 3096 3093 3089 3086 3082 3078 3074 3069 3064 3059 3054 3049 3044 3039 3033 3027 3022 3016 3010 3003 2996
3213 3212 3212 3211 3210 3209 3208 3207 3205 3204 3203 3201 3200 3199 3198 3197 3195 3193 3192 3190 3189 3187 3185 3183 3182 3180 3179 3177 3176 3174 3172 3171 3168 3166 3164 3162 3160 3157 3155 3153 3150 3148 3146 3144 3142 3140 3138 3135 3134 3132 3130 3128 3127 3125 3123 3121 3119 3117 3115 3112 3110 3107 3105 3103 3100 3097 3093 3090 3087 3083 3079 3076 3072 3067 3062 3057 3052 3048 3043 3037 3031 3024 3018 3013 3008 3001 2993
3212 3212 3211 3211 3210 3209 3208 3206 3205 3204 3202 3201 3200 3199 3197 3196 3194 3193 3191 3190 3188 3186 3184 3183 3181 3180 3178 3177 3175 3174 3172 3169 3167 3165 3163 3161 3158 3156 3153 3151 3149 3146 3144 3142 3140 3138 3136 3134 3132 3130 3129 3127 3125 3123 3122 3120 3118 3116 3114 3111 3108 3106 3103 3099 3097 3094 3091 3087 3083 3079 3076 3073 3068 3062 3057 3053 3048 3044 3040 3035 3029 3022 3016 3010 3005 2998 2990
3212 3212 3211 3210 3209 3208 3207 3206 3204 3203 3202 3201 3199 3198 3196 3195 3194 3192 3191 3189 3187 3185 3184 3182 3181 3179 3178 3176 3175 3173 3171 3168 3166 3164 3162 3160 3157 3155 3152 3149 3147 3145 3143 3140 3138 3136 3134 3133 3131 3129 3127 3125 3124 3122 3120 3118 3116 3114 3112 3110 3107 3104 3100 3097 3094 3091 3088 3083 3079 3074 3071 3068 3065 3060 3055 3051 3045 3039 3035 3031 3025 3019 3013 3007 3000 2994 2987
3212 3211 3210 3209 3208 3207 3206 3205 3204 3203 3201 3200 3199 3197 3196 3195 3193 3192 3190 3188 3186 3185 3183 3182 3180 3178 3177 3175 3174 3172 3170 3167 3165 3163 3161 3158 3156 3153 3151 3148 3145 3143 3141 3139 3137 3135 3133 3131 3129 3128 3126 3124 3122 3120 3118 3116 3115 3112 3110 3108 3105 3102 3099 3095 3091 3087 3084 3080 3076 3071 3066 3062 3060 3056 3052 3047 3041 3035 3030 3025 3020 3015 3010 3003 2995 2989 2984
3211 3211 3210 3209 3208 3207 3205 3204 3203 3202 3201 3199 3198 3197 3195 3194 3193 3191 3189 3187 3186 3184 3183 3181 3179 3177 3176 3174 3173 3171 3169 3167 3165 3162 3160 3157 3154 3152 3149 3146 3144 3141 3139 3137 3135 3133 3131 3129 3128 3126 3124 3122 3120 3118 3116 3114 3112 3110 3108 3106 3104 3101 3097 3093 3089 3085 3081 3077 3074 3070 3065 3060 3056 3052 3048 3043 3037 3031 3026 3021 3016 3011 3006 3000 2992 2985 2978
3211 3210 3209 3208 3207 3206 3205 3203 3202 3201 3200 3199 3197 3196 3195 3193 3192 3190 3188 3186 3185 3184 3182 3180 3178 3176 3175 3173 3172 3170 3168 3166 3163 3161 3158 3156 3153 3150 3147 3144 3142 3139 3137 3135 3133 3131 3129 3127 3126 3124 3122 3121 3118 3116 3114 3112 3110 3108 3106 3104 3102 3099 3095 3092 3088 3083 3079 3075 3071 3067 3063 3058 3053 3049 3044 3039 3033 3027 3022 3018 3013 3008 3003 2997 2991 2984 2976
3210 3209 3208 3207 3205 3204 3204 3203 3202 3201 3199 3198 3197 3195 3194 3192 3191 3189 3187 3186 3184 3183 3181 3179 3177 3176 3174 3172 3170 3168 3166 3164 3162 3159 3157 3154 3151 3148 3145 3142 3140 3137 3135 3133 3131 3129 3127 3126 3124 3122 3120 3119 3117 3114 3112 3110 3107 3105 3103 3101 3099 3096 3093 3089 3085 3081 3076 3072 3069 3065 3061 3057 3051 3046 3042 3037 3031 3025 3020 3016 3011 3005 3000 2994 2988 2981 2975
3208 3207 3206 3205 3204 3203 3203 3202 3201 3200 3199 3197 3196 3195 3193 3191 3190 3188 3186 3185 3183 3182 3180 3178 3177 3175 3173 3171 3169 3167 3165 3163 3160 3158 3155 3152 3149 3146 3143 3141 3138 3136 3133 3131 3129 3127 3126 3124 3122 3120 3118 3117 3115 3112 3110 3108 3105 3103 3101 3098 3096 3093 3090 3087 3083 3078 3074 3069 3066 3063 3059 3054 3048 3042 3038 3034 3030 3024 3019 3013 3007 3002 2997 2991 2985 2978 2972
3207 3206 3205 3204 3204 3203 3202 3201 3200 3199 3198 3197 3195 3194 3192 3191 3189 3187 3185 3184 3182 3181 3179 3177 3176 3174 3172 3170 3168 3166 3164 3161 3159 3156 3153 3149 3147 3144 3141 3139 3137 3134 3132 3130 3127 3125 3124 3122 3120 3118 3116 3115 3112 3110 3108 3106 3104 3101 3099 3096 3093 3091 3088 3084 3080 3076 3071 3067 3062 3058 3055 3050 3045 3040 3035 3031 3026 3021 3015 3009 3003 2998 2993 2988 2983 2976 2970
3206 3205 3204 3204 3203 3202 3201 3200 3199 3198 3197 3196 3195 3193 3192 3190 3188 3186 3185 3183 3181 3180 3178 3177 3175 3173 3171 3169 3167 3165 3163 3160 3157 3154 3151 3148 3145 3142 3140 3137 3135 3132 3130 3128 3126 3124 3122 3120 3118 3116 3114 3113 3110 3108 3106 3104 3102 3100 3097 3094 3091 3088 3085 3081 3078 3074 3069 3064 3059 3054 3049 3045 3041 3037 3033 3028 3023 3017 3011 3005 2999 2994 2990 2984 2978 2972 2967
3205 3205 3204 3203 3202 3201 3200 3199 3198 3197 3196 3195 3194 3192 3190 3189 3187 3185 3184 3182 3181 3179 3177 3176 3174 3173 3171 3168 3166 3164 3162 3159 3156 3153 3150 3147 3143 3141 3138 3135 3133 3130 3128 3126 3125 3122 3120 3119 3117 3115 3113 3111 3109 3106 3104 3103 3101 3098 3096 3093 3089 3085 3082 3078 3075 3071 3067 3062 3057 3051 3046 3042 3038 3034 3030 3026 3020 3014 3008 3002 2995 2989 2984 2980 2974 2969 2963
3205 3204 3203 3202 3201 3200 3199 3198 3197 3196 3195 3194 3192 3191 3189 3188 3186 3185 3183 3181 3180 3178 3176 3175 3173 3172 3170 3168 3166 3163 3161 3158 3155 3152 3148 3145 3142 3139 3136 3134 3131 3129 3127 3125 3123 3121 3119 3117 3116 3113 3112 3110 3108 3105 3103 3101 3099 3097 3094 3091 3087 3083 3079 3075 3071 3068 3064 3059 3054 3050 3045 3041 3036 3031 3026 3021 3015 3009 3004 2998 2993 2987 2982 2976 2971 2966 2959
3204 3203 3202 3201 3200 3199 3198 3197 3196 3195 3194 3192 3191 3190 3188 3187 3185 3184 3182 3181 3179 3177 3175 3174 3172 3170 3168 3166 3164 3162 3159 3156 3154 3151 3147 3144 3140 3137 3135 3132 3130 3127 3125 3123 3122 3120 3118 3116 3115 3112 3111 3109 3107 3104 3102 3100 3098 3096 3093 3089 3085 3081 3076 3072 3068 3064 3061 3057 3052 3048 3043 3038 3033 3027 3022 3017 3012 3007 3002 2997 2991 2985 2979 2973 2967 2961 2955
3203 3202 3201 3200 3199 3198 3197 3196 3195 3194 3192 3191 3190 3188 3187 3186 3184 3183 3181 3180 3178 3176 3175 3173 3171 3169 3167 3165 3163 3161 3158 3155 3152 3149 3146 3142 3139 3136 3133 3130 3128 3125 3123 3121 3120 3118 3117 3115 3113 3112 3110 3108 3106 3103 3101 3099 3097 3094 3091 3087 3083 3078 3074 3069 3065 3061 3058 3054 3050 3046 3041 3037 3032 3026 3021 3016 3011 3006 3000 2993 2987 2981 2975 2969 2963 2957 2952
3202 3201 3200 3199 3198 3197 3196 3195 3193 3192 3191 3190 3188 3187 3186 3185 3183 3182 3181 3179 3177 3176 3174 3172 3170 3168 3166 3164 3162 3159 3156 3153 3150 3147 3144 3141 3138 3135 3132 3129 3126 3124 3122 3120 3119 3117 3115 3114 3112 3110 3108 3107 3104 3102 3100 3098 3095 3091 3088 3084 3080 3075 3071 3066 3062 3058 3054 3051 3047 3043 3038 3034 3029 3024 3018 3013 3008 3002 2996 2990 2984 2979 2973 2967 2961 2954 2949
3201 3200 3199 3198 3196 3195 3194 3193 3192 3191 3189 3188 3187 3186 3185 3184 3182 3181 3180 3178 3176 3174 3173 3171 3169 3167 3165 3163 3160 3157 3154 3151 3149 3146 3143 3140 3137 3133 3130 3128 3125 3123 3120 3119 3117 3116 3114 3112 3110 3109 3107 3105 3103 3101 3099 3096 3092 3088 3084 3080 3076 3072 3068 3063 3058 3054 3050 3046 3042 3038 3033 3028 3023 3018 3012 3007 3003 2998 2993 2987 2982 2976 2971 2965 2959 2952 2945
3200 3199 3198 3197 3195 3194 3193 3191 3190 3189 3188 3187 3186 3185 3184 3183 3181 3180 3179 3177 3175 3173 3171 3170 3168 3166 3164 3161 3159 3156 3153 3150 3147 3144 3141 3139 3136 3133 3130 3127 3124 3121 3119 3117 3116 3114 3112 3111 3109 3107 3105 3103 3101 3099 3097 3094 3090 3085 3080 3077 3073 3069 3064 3060 3055 3050 3047 3043 3039 3034 3030 3025 3019 3014 3009 3003 2998 2993 2988 2983 2978 2973 2967 2961 2955 2949 2942
3200 3198 3197 3195 3194 3193 3192 3190 3189 3188 3187 3186 3185 3184 3183 3182 3180 3179 3177 3176 3174 3172 3170 3168 3166 3164 3162 3160 3157 3154 3151 3148 3146 3143 3140 3137 3135 3132 3129 3126 3124 3121 3119 3117 3115 3113 3111 3109 3108 3106 3104 3102 3099 3097 3094 3091 3087 3083 3078 3073 3069 3065 3061 3057 3052 3047 3043 3040 3036 3031 3027 3022 3017 3012 3007 3001 2995 2990 2985 2979 2974 2969 2964 2958 2952 2946 2940
3199 3197 3196 3194 3193 3192 3190 3189 3188 3187 3186 3185 3184 3183 3182 3180 3179 3178 3176 3174 3173 3171 3169 3167 3165 3163 3160 3158 3155 3152 3149 3146 3144 3141 3138 3135 3133 3130 3128 3125 3123 3121 3119 3117 3115 3113 3111 3109 3107 3105 3103 3100 3097 3094 3091 3087 3084 3080 3075 3070 3066 3062 3057 3053 3049 3045 3041 3037 3033 3029 3024 3019 3014 3009 3004 2998 2993 2988 2983 2977 2970 2965 2960 2955 2949 2943 2936
3198 3197 3195 3194 3192 3191 3189 3188 3187 3186 3186 3185 3184 3182 3181 3180 3178 3177 3175 3173 3172 3170 3168 3166 3164 3161 3159 3157 3154 3151 3149 3146 3143 3140 3137 3134 3131 3129 3126 3124 3122 3120 3118 3116 3114 3113 3111 3108 3106 3104 3101 3098 3095 3091 3087 3083 3080 3076 3072 3068 3063 3058 3054 3050 3046 3042 3038 3034 3029 3025 3020 3015 3011 3006 3001 2996 2990 2985 2980 2975 2969 2963 2957 2952 2946 2940 2934
3197 3196 3194 3193 3191 3190 3188 3187 3187 3186 3185 3184 3183 3182 3180 3179 3177 3176 3174 3172 3171 3169 3167 3165 3162 3160 3158 3155 3153 3150 3147 3145 3142 3139 3136 3134 3131 3128 3126 3123 3121 3119 3117 3115 3113 3111 3110 3107 3105 3102 3100 3097 3093 3089 3084 3080 3076 3073 3069 3065 3060 3056 3051 3047 3043 3039 3036 3032 3027 3023 3018 3013 3008 3003 2999 2994 2988 2982 2977 2972 2967 2961 2955 2949 2943 2937 2930
3196 3195 3193 3192 3190 3189 3188 3187 3186 3185 3184 3183 3182 3180 3179 3178 3176 3174 3173 3171 3169 3167 3165 3163 3161 3159 3157 3154 3152 3149 3146 3143 3141 3138 3135 3133 3130 3128 3125 3123 3120 3117 3115 3113 3112 3110 3108 3106 3103 3100 3097 3094 3090 3086 3082 3078 3074 3069 3065 3062 3058 3053 3049 3045 3041 3037 3033 3029 3025 3020 3015 3010 3005 3000 2996 2991 2986 2980 2974 2968 2962 2957 2951 2945 2938 2932 2926
3195 3193 3192 3190 3189 3188 3187 3186 3185 3184 3183 3182 3181 3179 3178 3176 3175 3173 3171 3170 3168 3166 3164 3162 3160 3157 3155 3153 3151 3148 3145 3142 3140 3137 3134 3131 3129 3127 3124 3121 3118 3116 3114 3112 3110 3108 3106 3103 3101 3097 3094 3090 3087 3084 3080 3075 3071 3066 3062 3059 3055 3051 3047 3042 3039 3035 3031 3026 3022 3018 3012 3007 3002 2997 2992 2988 2983 2977 2972 2966 2960 2953 2947 2941 2934 2928 2921
3193 3192 3191 3189 3188 3187 3186 3185 3184 3183 3182 3181 3179 3178 3177 3175 3173 3171 3169 3168 3166 3164 3162 3160 3158 3155 3153 3151 3149 3147 3144 3141 3138 3136 3133 3130 3128 3125 3123 3120 3118 3116 3113 3111 3109 3107 3104 3101 3098 3095 3091 3087 3084 3081 3077 3072 3068 3064 3060 3056 3052 3049 3044 3040 3036 3032 3028 3024 3019 3015 3010 3005 3000 2994 2989 2984 2979 2974 2968 2962 2956 2951 2945 2938 2932 2925 2918
3192 3191 3190 3188 3187 3186 3185 3184 3183 3182 3181 3179 3178 3176 3175 3173 3171 3169 3168 3166 3164 3162 3160 3158 3156 3153 3151 3149 3147 3145 3142 3140 3137 3135 3132 3129 3126 3124 3121 3119 3118 3116 3113 3110 3108 3105 3101 3098 3095 3092 3088 3085 3081 3078 3074 3069 3065 3061 3057 3053 3050 3046 3042 3038 3034 3030 3026 3021 3017 3012 3007 3002 2997 2991 2986 2980 2975 2971 2965 2959 2953 2947 2942 2935 2929 2922 2914
3190 3189 3188 3187 3186 3185 3184 3183 3181 3180 3179 3178 3176 3175 3173 3171 3169 3168 3166 3164 3162 3160 3158 3156 3154 3151 3149 3147 3145 3143 3140 3138 3136 3133 3131 3128 3126 3124 3121 3119 3117 3114 3112 3109 3106 3102 3099 3095 3092 3089 3086 3082 3078 3075 3071 3067 3062 3058 3054 3051 3047 3044 3040 3035 3031 3027 3023 3018 3014 3009 3004 2999 2993 2988 2982 2977 2972 2966 2961 2956 2950 2943 2937 2931 2924 2917 2910
3189 3188 3187 3186 3185 3183 3182 3181 3179 3178 3177 3176 3174 3173 3171 3169 3168 3166 3164 3162 3160 3158 3156 3154 3151 3149 3147 3145 3143 3140 3138 3136 3134 3132 3130 3128 3125 3123 3121 3119 3116 3113 3110 3108 3104 3100 3096 3093 3089 3086 3083 3080 3075 3071 3068 3064 3060 3056 3052 3048 3044 3041 3037 3033 3029 3024 3020 3016 3011 3006 3001 2995 2990 2984 2978 2973 2967 2962 2957 2952 2946 2939 2932 2927 2921 2914 2907
3187 3186 3185 3184 3183 3182 3180 3179 3178 3176 3175 3174 3172 3171 3169 3168 3166 3164 3162 3160 3158 3156 3154 3152 3149 3147 3145 3143 3141 3139 3137 3135 3133 3131 3129 3127 3124 3122 3120 3118 3115 3111 3108 3106 3103 3099 3095 3091 3087 3083 3080 3076 3072 3068 3064 3061 3057 3053 3049 3046 3042 3038 3035 3031 3026 3022 3018 3013 3008 3003 2998 2992 2986 2981 2975 2969 2963 2957 2952 2948 2942 2936 2929 2923 2917 2911 2904
3185 3184 3183 3182 3181 3180 3178 3177 3176 3174 3173 3172 3170 3169 3167 3166 3164 3162 3160 3158 3157 3155 3153 3150 3148 3146 3144 3141 3139 3137 3135 3133 3131 3129 3128 3125 3123 3120 3118 3115 3112 3109 3106 3103 3100 3097 3093 3089 3085 3081 3077 3073 3069 3065 3061 3058 3055 3051 3047 3043 3039 3036 3032 3028 3024 3020 3015 3010 3005 3000 2995 2989 2983 2977 2972 2966 2960 2953 2947 2941 2936 2931 2925 2918 2913 2907 2901